EW2809 Weather Reports


Display with metric or nautical units.
time (UTC)temp
F
wind
direction
speed
MPH
gust
MPH
rain 1hr
in
rain 24hr
in
rain mn
in
humidity
%
barometer
mb
20260505003516 67 0.0 0.0 0.00 0.00 0.00 54 1009.5
20260505003016 67 0.0 0.0 0.00 0.00 0.00 54 1009.5
20260505002516 67 90 0.0 1.0 0.00 0.00 0.00 56 1009.6
20260505002015 67 90 0.0 1.0 0.00 0.00 0.00 53 1009.5
20260505001516 67 90 0.0 1.0 0.00 0.00 0.00 53 1009.5
20260505001015 67 0.0 0.0 0.00 0.00 0.00 53 1009.6
20260505000516 67 0.0 0.0 0.00 0.00 0.00 52 1009.5
20260505000015 67 0.0 0.0 0.00 0.00 0.00 53 1009.5
20260504235535 67 90 0.0 1.0 0.00 0.00 0.00 54 1009.5
20260504235036 68 90 0.0 1.0 0.00 0.00 0.00 54 1009.5
20260504234536 68 90 0.0 1.0 0.00 0.00 0.00 55 1009.3
20260504234015 68 0.0 0.0 0.00 0.00 0.00 54 1009.3
20260504233516 68 90 0.0 2.0 0.00 0.00 0.00 54 1009.3
20260504233015 68 90 0.0 1.0 0.00 0.00 0.00 53 1009.3
20260504232535 68 90 0.0 1.0 0.00 0.00 0.00 52 1009.3
20260504232015 69 0.0 0.0 0.00 0.00 0.00 52 1009.2
20260504231516 69 90 0.0 1.0 0.00 0.00 0.00 51 1009.1
20260504231016 69 90 0.0 1.0 0.00 0.00 0.00 50 1009.2
20260504230515 70 90 0.0 1.0 0.00 0.00 0.00 51 1009.2
20260504230016 70 90 0.0 2.0 0.00 0.00 0.00 50 1009.2
20260504225515 70 90 0.0 3.0 0.00 0.00 0.00 48 1009.1
20260504225016 71 90 0.0 2.0 0.00 0.00 0.00 48 1009.2
20260504224535 71 90 0.0 3.0 0.00 0.00 0.00 48 1009.2
20260504224016 71 90 1.0 6.0 0.00 0.00 0.00 44 1009.3
20260504223515 71 90 0.0 3.0 0.00 0.00 0.00 46 1009.3
20260504223016 72 90 1.0 4.0 0.00 0.00 0.00 45 1009.3
20260504222516 72 90 0.0 1.0 0.00 0.00 0.00 43 1009.1
20260504222016 72 90 1.0 4.0 0.00 0.00 0.00 43 1009.2
20260504221515 72 90 2.0 6.0 0.00 0.00 0.00 43 1009.1
20260504221035 72 90 1.0 4.0 0.00 0.00 0.00 44 1009.2
20260504220516 72 90 1.0 6.0 0.00 0.00 0.00 46 1009.2
20260504220015 72 90 1.0 4.0 0.00 0.00 0.00 46 1009.1
20260504215515 73 90 0.0 3.0 0.00 0.00 0.00 44 1009.1
20260504215015 73 90 1.0 3.0 0.00 0.00 0.00 41 1009.1
20260504214515 73 90 1.0 4.0 0.00 0.00 0.00 41 1009.1
20260504214015 74 90 1.0 4.0 0.00 0.00 0.00 42 1009.1
20260504213515 74 90 1.0 5.0 0.00 0.00 0.00 41 1009.2
20260504213035 74 90 1.0 6.0 0.00 0.00 0.00 40 1009.1
20260504212515 74 90 0.0 1.0 0.00 0.00 0.00 44 1009.1
20260504212016 74 90 0.0 1.0 0.00 0.00 0.00 42 1009.2
20260504211515 74 90 1.0 3.0 0.00 0.00 0.00 47 1009.2
20260504211015 74 90 0.0 3.0 0.00 0.00 0.00 40 1009.2
20260504210515 74 90 1.0 3.0 0.00 0.00 0.00 39 1009.2
20260504210056 75 90 1.0 4.0 0.00 0.00 0.00 41 1009.2
20260504205515 75 90 0.0 2.0 0.00 0.00 0.00 42 1009.1
20260504205015 75 90 0.0 1.0 0.00 0.00 0.00 41 1009.2
20260504204515 75 90 0.0 2.0 0.00 0.00 0.00 39 1009.2
20260504204015 76 90 0.0 2.0 0.00 0.00 0.00 40 1009.4
20260504203515 76 90 0.0 2.0 0.00 0.00 0.00 42 1009.2
20260504203015 77 90 0.0 1.0 0.00 0.00 0.00 42 1009.3
20260504202557 77 90 1.0 2.0 0.00 0.00 0.00 39 1009.5
20260504202018 77 90 0.0 2.0 0.00 0.00 0.00 41 1009.6
20260504201517 78 90 0.0 2.0 0.00 0.00 0.00 37 1009.7
20260504201017 78 90 1.0 3.0 0.00 0.00 0.00 39 1009.7
20260504200517 78 90 1.0 3.0 0.00 0.00 0.00 38 1009.8
20260504200017 78 90 1.0 3.0 0.00 0.00 0.00 38 1009.8
20260504195517 78 90 1.0 3.0 0.00 0.00 0.00 39 1009.9
20260504195017 78 90 2.0 5.0 0.00 0.00 0.00 38 1009.9
20260504194537 78 90 0.0 2.0 0.00 0.00 0.00 40 1009.9
20260504194038 78 90 2.0 4.0 0.00 0.00 0.00 41 1010.0
20260504193515 79 90 0.0 3.0 0.00 0.00 0.00 39 1010.2
20260504193017 79 90 0.0 1.0 0.00 0.00 0.00 39 1010.3
20260504192537 79 90 1.0 5.0 0.00 0.00 0.00 38 1010.4
20260504192017 78 90 1.0 5.0 0.00 0.00 0.00 41 1010.5
20260504191517 79 90 1.0 3.0 0.00 0.00 0.00 41 1010.5
20260504191038 79 90 0.0 1.0 0.00 0.00 0.00 42 1010.5
20260504190517 78 90 0.0 2.0 0.00 0.00 0.00 41 1010.6
20260504190037 78 90 1.0 4.0 0.00 0.00 0.00 40 1010.8
20260504185517 77 90 1.0 5.0 0.00 0.00 0.00 44 1010.7
20260504185017 78 90 1.0 4.0 0.00 0.00 0.00 39 1011.0
20260504184518 78 90 1.0 4.0 0.00 0.00 0.00 44 1010.9
20260504184017 77 90 1.0 4.0 0.00 0.00 0.00 38 1011.1
20260504183517 77 90 1.0 3.0 0.00 0.00 0.00 40 1011.1
20260504183017 78 90 1.0 3.0 0.00 0.00 0.00 40 1011.2
20260504182537 78 90 1.0 2.0 0.00 0.00 0.00 40 1011.3
20260504182017 77 90 1.0 3.0 0.00 0.00 0.00 47 1011.4
20260504181517 77 90 1.0 4.0 0.00 0.00 0.00 40 1011.4
20260504181017 77 90 1.0 3.0 0.00 0.00 0.00 42 1011.5
20260504180538 77 90 1.0 4.0 0.00 0.00 0.00 46 1011.6
20260504180017 77 90 1.0 2.0 0.00 0.00 0.00 38 1011.7
20260504175517 76 90 1.0 3.0 0.00 0.00 0.00 48 1011.7
20260504175018 75 90 1.0 5.0 0.00 0.00 0.00 43 1011.7
20260504174517 75 90 1.0 3.0 0.00 0.00 0.00 42 1011.7
20260504174017 75 90 1.0 4.0 0.00 0.00 0.00 44 1011.8
20260504173517 74 90 1.0 3.0 0.00 0.00 0.00 41 1011.8
20260504173017 74 90 2.0 5.0 0.00 0.00 0.00 38 1011.8
20260504172517 75 90 1.0 3.0 0.00 0.00 0.00 39 1011.9
20260504172017 74 90 1.0 3.0 0.00 0.00 0.00 39 1012.1
20260504171537 75 90 1.0 3.0 0.00 0.00 0.00 41 1012.2
20260504171018 75 90 1.0 3.0 0.00 0.00 0.00 41 1012.2
20260504170517 74 90 1.0 3.0 0.00 0.00 0.00 43 1012.4
20260504151017 69 90 0.0 3.0 0.00 0.00 0.00 48 1013.6
20260504150517 68 90 0.0 1.0 0.00 0.00 0.00 48 1013.7
20260504141016 61 90 0.0 1.0 0.00 0.00 0.00 53 1014.1
20260504140517 60 90 0.0 1.0 0.00 0.00 0.00 57 1014.1
20260504130537 56 0.0 0.0 0.00 0.00 0.00 67 1014.8
20260504110516 45 0.0 0.0 0.00 0.00 0.00 81 1015.2
20260504100516 47 0.0 0.0 0.00 0.00 0.00 81 1015.2
20260504081516 46 0.0 0.0 0.00 0.00 0.00 83 1015.5
20260504081036 46 0.0 0.0 0.00 0.00 0.00 84 1015.5
20260504080516 46 0.0 0.0 0.00 0.00 0.00 84 1015.6
20260504050557 43 0.0 0.0 0.00 0.00 0.00 77 1015.8
20260504050015 43 0.0 0.0 0.00 0.00 0.00 77 1015.7
20260504045516 43 0.0 0.0 0.00 0.00 0.00 75 1015.8
20260504045015 43 0.0 0.0 0.00 0.00 0.00 75 1015.8
20260504044515 43 0.0 0.0 0.00 0.00 0.00 76 1015.8
20260504044016 43 0.0 0.0 0.00 0.00 0.00 74 1015.7
20260504043515 42 0.0 0.0 0.00 0.00 0.00 73 1015.7
20260504043036 43 0.0 0.0 0.00 0.00 0.00 73 1015.6
20260504042516 43 0.0 0.0 0.00 0.00 0.00 73 1015.7
20260504042016 43 0.0 0.0 0.00 0.00 0.00 72 1015.7
20260504041515 43 0.0 0.0 0.00 0.00 0.00 73 1015.6
20260504041015 43 0.0 0.0 0.00 0.00 0.00 73 1015.6
20260504040536 43 0.0 0.0 0.00 0.00 0.00 73 1015.6
20260504040016 43 0.0 0.0 0.00 0.00 0.00 73 1015.6
20260504035515 43 0.0 0.0 0.00 0.00 0.00 73 1015.7
20260504035035 43 0.0 0.0 0.00 0.00 0.00 73 1015.7
20260504034515 43 0.0 0.0 0.00 0.00 0.00 74 1015.7
20260504034016 43 0.0 0.0 0.00 0.00 0.00 74 1015.6
20260504033516 43 0.0 0.0 0.00 0.00 0.00 74 1015.6
20260504033015 43 0.0 0.0 0.00 0.00 0.00 75 1015.4
20260504032515 43 0.0 0.0 0.00 0.00 0.00 74 1015.4
20260504032015 43 0.0 0.0 0.00 0.00 0.00 76 1015.4
20260504031515 43 0.0 0.0 0.00 0.00 0.00 74 1015.3
20260504031015 43 0.0 0.0 0.00 0.00 0.00 74 1015.2
20260504030516 43 0.0 0.0 0.00 0.00 0.00 75 1015.3
20260504030015 44 0.0 0.0 0.00 0.00 0.00 75 1015.2
20260504025515 44 0.0 0.0 0.00 0.00 0.00 75 1015.1
20260504025015 44 0.0 0.0 0.00 0.00 0.00 73 1015.1
20260504024515 44 0.0 0.0 0.00 0.00 0.00 72 1015.1
20260504024015 44 0.0 0.0 0.00 0.00 0.00 71 1015.1
20260504023516 44 0.0 0.0 0.00 0.00 0.00 72 1015.1
20260504023015 45 0.0 0.0 0.00 0.00 0.00 68 1015.0
20260504022535 45 0.0 0.0 0.00 0.00 0.00 67 1015.0
20260504022015 45 0.0 0.0 0.00 0.00 0.00 66 1014.9
20260504021535 45 0.0 0.0 0.00 0.00 0.00 68 1015.0
20260504021015 45 0.0 0.0 0.00 0.00 0.00 70 1015.0
20260504020515 45 0.0 0.0 0.00 0.00 0.00 70 1015.0
20260504020018 46 0.0 0.0 0.00 0.00 0.00 67 1014.9
20260504015517 46 0.0 0.0 0.00 0.00 0.00 65 1014.9
20260504015017 46 0.0 0.0 0.00 0.00 0.00 64 1014.8
20260504014517 47 0.0 0.0 0.00 0.00 0.00 62 1014.8
20260504014017 47 0.0 0.0 0.00 0.00 0.00 62 1014.8
20260504013518 47 0.0 0.0 0.00 0.00 0.00 61 1014.8
20260504013017 47 0.0 0.0 0.00 0.00 0.00 62 1014.8
20260504012517 47 0.0 0.0 0.00 0.00 0.00 61 1014.7
20260504012017 48 0.0 0.0 0.00 0.00 0.00 60 1014.6
20260504011517 48 0.0 0.0 0.00 0.00 0.00 60 1014.6
20260504011017 48 0.0 0.0 0.00 0.00 0.00 59 1014.6
20260504010517 49 0.0 0.0 0.00 0.00 0.00 57 1014.6
20260504010017 49 0.0 0.0 0.00 0.00 0.00 56 1014.5
20260504005517 50 0.0 0.0 0.00 0.00 0.00 59 1014.5
20260504005017 50 0.0 0.0 0.00 0.00 0.00 57 1014.5
20260504004538 50 0.0 0.0 0.00 0.00 0.00 55 1014.4
20260504004017 50 0.0 0.0 0.00 0.00 0.00 54 1014.3